Location: Bord�res
(43.2000°N, 0.2167°W)
Time: 12:11:48
(UTC+00:00)

Cosmos 2278 Rocket - Pass Details

Date: 03 March 2021
Orbit: 842 x 845 km, 71.0° (Epoch: 20 April)

Event Time Altitude Azimuth Distance (km) Brightness Sun altitude
Rises 18:40:11 0° 348° (NNW) 3,414 5.5 -9.5°
Reaches altitude 10° 18:45:33 10° 30° (NNE) 2,473 4.3 -10.4°
Maximum altitude 18:46:19 10° 38° (NE) 2,453 4.3 -10.6°
Drops below altitude 10° 18:47:06 10° 46° (NE) 2,471 4.2 -10.7°
Enters shadow 18:48:20 - 58° (ENE) 2,572 4.2 -10.9°
